TJS-5

Last updated on Mon Jun 22 2026 00:03:07 GMT+0000 (Coordinated Universal Time)

1 44978U 20002A 26172.55395016 -.00000343 00000+0 00000+0 0 9997 2 44978 0.0070 11.8722 0007602 36.2066 168.5853 1.00270465 23758
UTC large
Height (km)
Speed (km/s)
/
Latitude / Longitude
Inclination (degrees)
Orbital Period (minutes)
Azimuth
Elevation
Range (km)
Doppler Factor

Next 0 passes for location: London (51.5072 / 0.1276)

No passes found over London.
TJS-5